• In Belarus
  • List of Countries
  • For 7 days
  • Water Temperature
  • Weather Map
  • Weather Widgets
  • user-avatar
    Login

    Hourly Weather Cacheu

    Today, 19 January, Sunday

    Time Temperature Precipitation Wind Pressure Humidity
    00:00 +20°C° 0 mm 1 mps 758 mmHg 49%
    01:00 +18°C° 0 mm 0 mps 758 mmHg 49%
    02:00 +17°C° 0 mm 0 mps 758 mmHg 49%
    03:00 +19°C° 0 mm 1 mps 758 mmHg 45%
    04:00 +20°C° 0 mm 1 mps 757 mmHg 41%
    05:00 +19°C° 0 mm 2 mps 757 mmHg 37%
    06:00 +20°C° 0 mm 2 mps 758 mmHg 31%
    07:00 +22°C° 0 mm 3 mps 758 mmHg 25%
    08:00 +24°C° 0 mm 3 mps 758 mmHg 20%
    09:00 +28°C° 0 mm 3 mps 758 mmHg 16%
    10:00 +33°C° 0 mm 3 mps 758 mmHg 13%
    11:00 +37°C° 0 mm 3 mps 758 mmHg 10%
    12:00 +38°C° 0 mm 2 mps 757 mmHg 10%
    13:00 +40°C° 0 mm 2 mps 756 mmHg 9%
    14:00 +42°C° 0 mm 2 mps 755 mmHg 9%
    15:00 +40°C° 0 mm 2 mps 755 mmHg 12%
    16:00 +38°C° 0 mm 3 mps 755 mmHg 14%
    17:00 +36°C° 0 mm 3 mps 755 mmHg 17%
    18:00 +31°C° 0 mm 3 mps 756 mmHg 23%
    19:00 +28°C° 0 mm 3 mps 756 mmHg 29%
    20:00 +24°C° 0 mm 2 mps 757 mmHg 36%
    21:00 +24°C° 0 mm 2 mps 757 mmHg 34%
    22:00 +24°C° 0 mm 2 mps 757 mmHg 33%
    23:00 +24°C° 0 mm 2 mps 757 mmHg 31%

    Tomorrow, 20 January, Monday

    Time Temperature Precipitation Wind Pressure Humidity
    00:00 +23°C° 0 mm 2 mps 757 mmHg 35%
    01:00 +22°C° 0 mm 1 mps 756 mmHg 39%
    02:00 +21°C° 0 mm 1 mps 756 mmHg 43%
    03:00 +21°C° 0 mm 1 mps 756 mmHg 42%
    04:00 +21°C° 0 mm 1 mps 756 mmHg 41%
    05:00 +20°C° 0 mm 1 mps 756 mmHg 40%
    06:00 +22°C° 0 mm 1 mps 756 mmHg 34%
    07:00 +23°C° 0 mm 1 mps 756 mmHg 29%
    08:00 +25°C° 0 mm 1 mps 756 mmHg 23%
    09:00 +29°C° 0 mm 1 mps 756 mmHg 19%
    10:00 +34°C° 0 mm 2 mps 756 mmHg 14%
    11:00 +37°C° 0 mm 2 mps 756 mmHg 10%
    12:00 +38°C° 0 mm 2 mps 756 mmHg 10%
    13:00 +39°C° 0 mm 3 mps 755 mmHg 10%
    14:00 +40°C° 0 mm 3 mps 754 mmHg 10%
    15:00 +38°C° 0 mm 4 mps 754 mmHg 16%
    16:00 +35°C° 0 mm 4 mps 755 mmHg 22%
    17:00 +32°C° 0 mm 4 mps 755 mmHg 28%
    18:00 +29°C° 0 mm 3 mps 755 mmHg 34%
    19:00 +26°C° 0 mm 3 mps 755 mmHg 39%
    20:00 +24°C° 0 mm 2 mps 756 mmHg 45%
    21:00 +24°C° 0 mm 2 mps 756 mmHg 41%
    22:00 +24°C° 0 mm 2 mps 757 mmHg 37%
    23:00 +24°C° 0 mm 1 mps 757 mmHg 34%

    Day after tomorrow, 21 January, Tuesday

    Time Temperature Precipitation Wind Pressure Humidity
    00:00 +23°C° 0 mm 1 mps 757 mmHg 34%
    01:00 +22°C° 0 mm 1 mps 756 mmHg 34%
    02:00 +22°C° 0 mm 1 mps 756 mmHg 34%
    03:00 +21°C° 0 mm 1 mps 756 mmHg 36%
    04:00 +21°C° 0 mm 1 mps 756 mmHg 38%
    05:00 +20°C° 0 mm 1 mps 756 mmHg 40%
    06:00 +22°C° 0 mm 1 mps 757 mmHg 37%
    07:00 +23°C° 0 mm 1 mps 757 mmHg 34%
    08:00 +25°C° 0 mm 1 mps 757 mmHg 31%
    09:00 +28°C° 0 mm 1 mps 757 mmHg 25%
    10:00 +32°C° 0 mm 1 mps 757 mmHg 19%
    11:00 +36°C° 0 mm 1 mps 758 mmHg 13%
    12:00 +37°C° 0 mm 2 mps 757 mmHg 13%
    13:00 +38°C° 0 mm 3 mps 756 mmHg 14%
    14:00 +38°C° 0 mm 4 mps 756 mmHg 14%
    15:00 +36°C° 0 mm 4 mps 756 mmHg 19%
    16:00 +34°C° 0 mm 4 mps 756 mmHg 25%
    17:00 +30°C° 0 mm 4 mps 755 mmHg 30%
    18:00 +28°C° 0 mm 3 mps 756 mmHg 38%
    19:00 +25°C° 0 mm 2 mps 757 mmHg 47%
    20:00 +23°C° 0 mm 1 mps 757 mmHg 56%
    21:00 +21°C° 0 mm 2 mps 757 mmHg 56%
    22:00 +21°C° 0 mm 2 mps 758 mmHg 57%
    23:00 +21°C° 0 mm 2 mps 758 mmHg 58%

    22 January, Wednesday

    Time Temperature Precipitation Wind Pressure Humidity
    00:00 +21°C° 0 mm 2 mps 758 mmHg 59%
    01:00 +20°C° 0 mm 2 mps 758 mmHg 59%
    02:00 +20°C° 0 mm 2 mps 757 mmHg 60%
    03:00 +19°C° 0 mm 2 mps 757 mmHg 59%
    04:00 +19°C° 0 mm 2 mps 757 mmHg 58%
    05:00 +19°C° 0 mm 2 mps 757 mmHg 58%
    06:00 +20°C° 0 mm 2 mps 758 mmHg 52%
    07:00 +23°C° 0 mm 2 mps 758 mmHg 47%
    08:00 +24°C° 0 mm 2 mps 759 mmHg 42%
    09:00 +28°C° 0 mm 2 mps 759 mmHg 32%
    10:00 +31°C° 0 mm 2 mps 759 mmHg 23%
    11:00 +36°C° 0 mm 2 mps 759 mmHg 13%
    12:00 +37°C° 0 mm 2 mps 758 mmHg 12%
    13:00 +38°C° 0 mm 2 mps 757 mmHg 10%
    14:00 +40°C° 0 mm 2 mps 757 mmHg 9%
    15:00 +38°C° 0 mm 2 mps 756 mmHg 13%
    16:00 +36°C° 0 mm 3 mps 756 mmHg 17%
    17:00 +34°C° 0 mm 4 mps 756 mmHg 21%
    18:00 +30°C° 0 mm 3 mps 757 mmHg 27%
    19:00 +27°C° 0 mm 3 mps 757 mmHg 32%
    20:00 +25°C° 0 mm 3 mps 758 mmHg 38%
    21:00 +24°C° 0 mm 3 mps 758 mmHg 42%
    22:00 +22°C° 0 mm 3 mps 758 mmHg 47%
    23:00 +21°C° 0 mm 2 mps 758 mmHg 52%

    23 January, Thursday

    Time Temperature Precipitation Wind Pressure Humidity
    00:00 +21°C° 0 mm 2 mps 758 mmHg 52%
    01:00 +21°C° 0 mm 2 mps 757 mmHg 52%
    02:00 +21°C° 0 mm 2 mps 757 mmHg 51%
    03:00 +21°C° 0 mm 2 mps 757 mmHg 47%
    04:00 +20°C° 0 mm 2 mps 757 mmHg 42%
    05:00 +20°C° 0 mm 2 mps 757 mmHg 38%
    06:00 +22°C° 0 mm 3 mps 757 mmHg 33%
    07:00 +24°C° 0 mm 3 mps 758 mmHg 29%
    08:00 +26°C° 0 mm 3 mps 758 mmHg 25%
    09:00 +29°C° 0 mm 4 mps 758 mmHg 20%
    10:00 +34°C° 0 mm 4 mps 758 mmHg 15%
    11:00 +38°C° 0 mm 4 mps 757 mmHg 10%
    12:00 +39°C° 0 mm 3 mps 757 mmHg 9%
    13:00 +40°C° 0 mm 3 mps 756 mmHg 8%
    14:00 +42°C° 0 mm 3 mps 756 mmHg 8%
    15:00 +40°C° 0 mm 3 mps 755 mmHg 10%
    16:00 +39°C° 0 mm 3 mps 755 mmHg 13%
    17:00 +37°C° 0 mm 3 mps 755 mmHg 16%
    18:00 +34°C° 0 mm 3 mps 755 mmHg 19%
    19:00 +31°C° 0 mm 3 mps 756 mmHg 22%
    20:00 +28°C° 0 mm 3 mps 756 mmHg 26%
    21:00 +27°C° 0 mm 3 mps 756 mmHg 26%
    22:00 +26°C° 0 mm 3 mps 756 mmHg 26%
    23:00 +26°C° 0 mm 3 mps 756 mmHg 26%

    24 January, Friday

    Time Temperature Precipitation Wind Pressure Humidity
    00:00 +26°C° 0 mm 3 mps 756 mmHg 23%
    01:00 +25°C° 0 mm 3 mps 756 mmHg 21%
    02:00 +25°C° 0 mm 3 mps 755 mmHg 19%
    03:00 +25°C° 0 mm 3 mps 755 mmHg 18%
    04:00 +25°C° 0 mm 3 mps 755 mmHg 18%
    05:00 +25°C° 0 mm 3 mps 755 mmHg 17%
    06:00 +26°C° 0 mm 3 mps 756 mmHg 17%
    07:00 +27°C° 0 mm 3 mps 756 mmHg 17%
    08:00 +28°C° 0 mm 3 mps 757 mmHg 17%
    09:00 +31°C° 0 mm 3 mps 757 mmHg 14%
    10:00 +36°C° 0 mm 4 mps 756 mmHg 11%
    11:00 +41°C° 0 mm 4 mps 756 mmHg 9%
    12:00 +42°C° 0 mm 4 mps 756 mmHg 8%
    13:00 +43°C° 0 mm 3 mps 755 mmHg 8%
    14:00 +44°C° 0 mm 3 mps 754 mmHg 8%
    15:00 +40°C° 0 mm 3 mps 754 mmHg 14%
    16:00 +36°C° 0 mm 4 mps 754 mmHg 20%
    17:00 +33°C° 0 mm 4 mps 754 mmHg 27%
    18:00 +29°C° 0 mm 4 mps 754 mmHg 35%
    19:00 +27°C° 0 mm 3 mps 755 mmHg 43%
    20:00 +24°C° 0 mm 3 mps 756 mmHg 52%
    21:00 +23°C° 0 mm 2 mps 756 mmHg 56%
    22:00 +21°C° 0 mm 2 mps 756 mmHg 61%
    23:00 +20°C° 0 mm 2 mps 757 mmHg 66%
    Show more